Location: San Pelegr�n
(42.1868°N, 0.0079°E)
Time: 14:58:25
(UTC+00:00)

ADEOS Rocket - Pass Details

Date: 24 January 2020
Orbit: 859 x 1306 km, 98.7° (Epoch: 23 February)

Event Time Altitude Azimuth Distance (km) Brightness Sun altitude
Rises 19:30:36 0° 10° (N) 3,830 6.0 -27.1°
Reaches altitude 10° 19:33:02 10° 8° (N) 2,932 5.4 -27.6°
Maximum altitude 19:39:41 66° 288° (WNW) 1,264 3.6 -28.8°
Drops below altitude 10° 19:46:58 10° 208° (SSW) 3,207 6.0 -30.2°
Sets 19:49:44 0° 206° (SSW) 4,211 6.6 -30.7°
